When you browse on this site, cookies collect data to enhance your experience and personalize the content and advertising you see.
Visit our Privacy Policy to learn more. By continuing to use the site, you agree to this use of cookies and data.
  • In Latvia
  • List of Countries
  • For 7 days
  • Water Temperature
  • Satellite Maps
  • Weather Map
  • Weather Widgets
  • user-avatar
    Login

    Hourly Weather Baraki Barak

    Today, 20 February, Wednesday

    Time Temperature Precipitation Wind Pressure Humidity
    00:00 -4°C° 0.3 mm 2 mps 594 mmHg 91%
    01:00 -4°C° 0.3 mm 2 mps 594 mmHg 89%
    02:00 -4°C° 0.3 mm 2 mps 594 mmHg 87%
    03:00 -4°C° 0.3 mm 2 mps 594 mmHg 87%
    04:00 -4°C° 0.3 mm 2 mps 594 mmHg 87%
    05:00 -3°C° 0 mm 2 mps 592 mmHg 87%
    06:00 -3°C° 0.4 mm 2 mps 593 mmHg 88%
    07:00 -3°C° 0.4 mm 2 mps 593 mmHg 89%
    08:00 -3°C° 0.4 mm 2 mps 593 mmHg 91%
    09:00 -4°C° 1 mm 3 mps 593 mmHg 91%
    10:00 -2°C° 1 mm 3 mps 593 mmHg 92%
    11:00 -2°C° 0 mm 3 mps 593 mmHg 93%
    12:00 -2°C° 1.4 mm 3 mps 593 mmHg 93%
    13:00 -3°C° 1.4 mm 4 mps 592 mmHg 93%
    14:00 -3°C° 1.4 mm 4 mps 592 mmHg 93%
    15:00 -2°C° 1.1 mm 3 mps 591 mmHg 93%
    16:00 -2°C° 1.1 mm 3 mps 591 mmHg 92%
    17:00 -2°C° 1.1 mm 3 mps 591 mmHg 92%
    18:00 -2°C° 0.6 mm 3 mps 591 mmHg 92%
    19:00 -3°C° 0.6 mm 2 mps 591 mmHg 92%
    20:00 -3°C° 0.6 mm 2 mps 591 mmHg 92%
    21:00 -1°C° 0.3 mm 1 mps 591 mmHg 91%
    22:00 -1°C° 0.3 mm 1 mps 591 mmHg 90%
    23:00 -2°C° 0.3 mm 1 mps 591 mmHg 89%

    Tomorrow, 21 February, Thursday

    Time Temperature Precipitation Wind Pressure Humidity
    00:00 -2°C° 0.2 mm 1 mps 591 mmHg 89%
    01:00 -2°C° 0.2 mm 1 mps 591 mmHg 89%
    02:00 -2°C° 0.2 mm 1 mps 591 mmHg 89%
    03:00 -2°C° 0.3 mm 1 mps 592 mmHg 89%
    04:00 -2°C° 0.3 mm 1 mps 592 mmHg 90%
    05:00 -2°C° 0.3 mm 1 mps 592 mmHg 91%
    06:00 -2°C° 0.3 mm 1 mps 593 mmHg 91%
    07:00 -2°C° 0.3 mm 1 mps 593 mmHg 91%
    08:00 -2°C° 0.3 mm 1 mps 594 mmHg 91%
    09:00 -1°C° 0.1 mm 1 mps 594 mmHg 87%
    10:00 0°C° 0.1 mm 1 mps 594 mmHg 84%
    11:00 0°C° 0.1 mm 1 mps 595 mmHg 81%
    12:00 +1°C° 0 mm 1 mps 594 mmHg 82%
    13:00 +1°C° 0 mm 1 mps 594 mmHg 83%
    14:00 +1°C° 0 mm 1 mps 594 mmHg 85%
    15:00 +1°C° 0 mm 1 mps 593 mmHg 84%
    16:00 0°C° 0 mm 1 mps 593 mmHg 83%
    17:00 -1°C° 0 mm 1 mps 593 mmHg 82%
    18:00 -2°C° 0 mm 1 mps 593 mmHg 82%
    19:00 -4°C° 0 mm 1 mps 594 mmHg 81%
    20:00 -7°C° 0 mm 1 mps 594 mmHg 81%
    21:00 -7°C° 0 mm 1 mps 594 mmHg 79%
    22:00 -8°C° 0 mm 1 mps 594 mmHg 77%
    23:00 -8°C° 0 mm 1 mps 594 mmHg 75%

    Day after tomorrow, 22 February, Friday

    Time Temperature Precipitation Wind Pressure Humidity
    00:00 -9°C° 0 mm 1 mps 594 mmHg 73%
    01:00 -9°C° 0 mm 1 mps 594 mmHg 71%
    02:00 -10°C° 0 mm 1 mps 594 mmHg 69%
    03:00 -10°C° 0 mm 1 mps 594 mmHg 67%
    04:00 -10°C° 0 mm 1 mps 594 mmHg 65%
    05:00 -11°C° 0 mm 1 mps 593 mmHg 63%
    06:00 -10°C° 0 mm 1 mps 594 mmHg 62%
    07:00 -10°C° 0 mm 1 mps 594 mmHg 60%
    08:00 -10°C° 0 mm 1 mps 594 mmHg 59%
    09:00 -8°C° 0 mm 1 mps 595 mmHg 58%
    10:00 -4°C° 0 mm 1 mps 596 mmHg 58%
    11:00 -1°C° 0 mm 1 mps 596 mmHg 58%
    12:00 0°C° 0 mm 1 mps 596 mmHg 59%
    13:00 +1°C° 0 mm 1 mps 596 mmHg 60%
    14:00 +1°C° 0 mm 1 mps 596 mmHg 61%
    15:00 +1°C° 0 mm 1 mps 595 mmHg 62%
    16:00 0°C° 0 mm 1 mps 595 mmHg 64%
    17:00 -1°C° 0 mm 1 mps 595 mmHg 66%
    18:00 -2°C° 0 mm 1 mps 595 mmHg 65%
    19:00 -4°C° 0 mm 1 mps 595 mmHg 64%
    20:00 -7°C° 0 mm 1 mps 595 mmHg 64%
    21:00 -7°C° 0 mm 1 mps 595 mmHg 63%
    22:00 -8°C° 0 mm 1 mps 595 mmHg 62%
    23:00 -8°C° 0 mm 1 mps 595 mmHg 61%

    23 February, Saturday

    Time Temperature Precipitation Wind Pressure Humidity
    00:00 -8°C° 0 mm 1 mps 595 mmHg 60%
    01:00 -9°C° 0 mm 1 mps 595 mmHg 59%
    02:00 -9°C° 0 mm 1 mps 594 mmHg 58%
    03:00 -9°C° 0 mm 1 mps 594 mmHg 57%
    04:00 -9°C° 0 mm 1 mps 594 mmHg 56%
    05:00 -9°C° 0 mm 1 mps 593 mmHg 55%
    06:00 -9°C° 0 mm 1 mps 594 mmHg 54%
    07:00 -8°C° 0 mm 1 mps 594 mmHg 53%
    08:00 -8°C° 0 mm 1 mps 594 mmHg 52%
    09:00 -6°C° 0 mm 1 mps 595 mmHg 52%
    10:00 -3°C° 0 mm 1 mps 595 mmHg 52%
    11:00 -1°C° 0 mm 1 mps 595 mmHg 52%
    12:00 0°C° 0 mm 1 mps 595 mmHg 54%
    13:00 +1°C° 0 mm 1 mps 594 mmHg 57%
    14:00 +2°C° 0 mm 1 mps 594 mmHg 59%
    15:00 +1°C° 0 mm 1 mps 593 mmHg 61%
    16:00 0°C° 0 mm 1 mps 593 mmHg 62%
    17:00 -1°C° 0 mm 1 mps 592 mmHg 63%
    18:00 -3°C° 0 mm 1 mps 592 mmHg 60%
    19:00 -4°C° 0 mm 1 mps 592 mmHg 57%
    20:00 -7°C° 0 mm 1 mps 592 mmHg 55%
    21:00 -7°C° 0 mm 1 mps 592 mmHg 53%
    22:00 -8°C° 0 mm 1 mps 592 mmHg 51%
    23:00 -8°C° 0 mm 1 mps 592 mmHg 49%

    24 February, Sunday

    Time Temperature Precipitation Wind Pressure Humidity
    00:00 -9°C° 0 mm 1 mps 592 mmHg 49%
    01:00 -9°C° 0 mm 1 mps 591 mmHg 49%
    02:00 -9°C° 0 mm 1 mps 591 mmHg 49%
    03:00 -10°C° 0 mm 1 mps 591 mmHg 50%
    04:00 -10°C° 0 mm 1 mps 591 mmHg 51%
    05:00 -10°C° 0 mm 1 mps 590 mmHg 52%
    06:00 -10°C° 0 mm 1 mps 591 mmHg 53%
    07:00 -10°C° 0 mm 1 mps 591 mmHg 53%
    08:00 -10°C° 0 mm 1 mps 591 mmHg 54%
    09:00 -8°C° 0 mm 1 mps 592 mmHg 55%
    10:00 -4°C° 0 mm 1 mps 592 mmHg 56%
    11:00 -2°C° 0 mm 1 mps 593 mmHg 57%
    12:00 -1°C° 0 mm 1 mps 593 mmHg 57%
    13:00 -1°C° 0 mm 1 mps 592 mmHg 58%
    14:00 0°C° 0 mm 1 mps 592 mmHg 58%
    15:00 -1°C° 0 mm 1 mps 592 mmHg 62%
    16:00 -2°C° 0 mm 1 mps 591 mmHg 65%
    17:00 -2°C° 0 mm 1 mps 591 mmHg 69%
    18:00 -4°C° 0 mm 1 mps 591 mmHg 65%
    19:00 -6°C° 0 mm 1 mps 591 mmHg 62%
    20:00 -8°C° 0 mm 1 mps 592 mmHg 59%
    21:00 -8°C° 0 mm 1 mps 592 mmHg 58%
    22:00 -9°C° 0 mm 1 mps 592 mmHg 58%
    23:00 -9°C° 0 mm 1 mps 592 mmHg 58%

    25 February, Monday

    Time Temperature Precipitation Wind Pressure Humidity
    00:00 -10°C° 0 mm 1 mps 591 mmHg 59%
    01:00 -12°C° 0 mm 2 mps 591 mmHg 59%
    02:00 -13°C° 0 mm 2 mps 591 mmHg 60%
    03:00 -13°C° 0 mm 2 mps 591 mmHg 60%
    04:00 -13°C° 0 mm 2 mps 590 mmHg 60%
    05:00 -14°C° 0 mm 2 mps 590 mmHg 60%
    06:00 -14°C° 0 mm 2 mps 590 mmHg 59%
    07:00 -13°C° 0 mm 2 mps 591 mmHg 59%
    08:00 -13°C° 0 mm 2 mps 591 mmHg 59%
    09:00 -10°C° 0 mm 2 mps 591 mmHg 59%
    10:00 -8°C° 0 mm 2 mps 592 mmHg 58%
    11:00 -6°C° 0 mm 2 mps 592 mmHg 58%
    12:00 -3°C° 0 mm 1 mps 592 mmHg 58%
    13:00 -2°C° 0 mm 1 mps 592 mmHg 58%
    14:00 -1°C° 0 mm 1 mps 591 mmHg 57%
    15:00 -2°C° 0 mm 1 mps 591 mmHg 61%
    16:00 -3°C° 0 mm 1 mps 591 mmHg 64%
    17:00 -3°C° 0 mm 1 mps 590 mmHg 68%
    18:00 -6°C° 0 mm 1 mps 591 mmHg 65%
    19:00 -7°C° 0 mm 1 mps 591 mmHg 63%
    20:00 -9°C° 0 mm 2 mps 591 mmHg 61%
    21:00 -10°C° 0 mm 2 mps 592 mmHg 62%
    22:00 -10°C° 0 mm 2 mps 592 mmHg 63%
    23:00 -12°C° 0 mm 2 mps 592 mmHg 64%
    Show more